User: anonymous   Login
Location: Newark
(17.9939°S, 31.0481°E)
Time: 22:10:08
(UTC+00:00)
Language:

Explorer 11/Cluster Stage 4 - Orbit

View from above orbital plane
View from above orbital plane
View from above satellite
View from above satellite

Ground track
Ground track

The orbit data is extracted from the following two-line orbital elements,

1   107U 61013A   19318.99843217 +.00000589 +00000-0 +57472-4 0  9995
2   107 028.7919 318.1890 0546990 288.2506 065.9303 14.08851548935816
Epoch (UTC): 14 November 2019 23:57:44
Eccentricity: 0.0546990
inclination: 28.7919°
perigee height: 467 km
apogee height: 1259 km
right ascension of ascending node: 318.1890°
argument of perigee: 288.2506°
revolutions per day: 14.08851548
mean anomaly at epoch: 65.9303°
orbit number at epoch: 93581

The dashed part of the orbit path shows where the satellite is in the earth's shadow,  

DLR